This is the latest recevied weather packets stored in our database for station/object KC3JUG-3. If no packets are shown the sender has not sent any weather packets the latest 10 day(s).
| Time | Temp. | Humidity | Pressure | Rain* | Wind** | Luminosity | Snow |
|---|---|---|---|---|---|---|---|
| 1777674653 | 15° C | 55% | 1012 hPa | 0 mm | - | - | - |
| 1777674346 | 15° C | 55% | 1011.9 hPa | 0 mm | - | - | - |
| 1777673150 | 15° C | 54% | 1012.2 hPa | 0 mm | - | - | - |
| 1777670451 | 15.56° C | 53% | 1012.1 hPa | 0 mm | - | - | - |
| 1777667453 | 15.56° C | 48% | 1012.4 hPa | 0 mm | - | - | - |
| 1777666250 | 15.56° C | 49% | 1012.6 hPa | 0 mm | - | - | - |
| 1777665350 | 15.56° C | 49% | 1012.7 hPa | 0 mm | - | - | - |
| 1777663852 | 16.11° C | 52% | 1013 hPa | 0 mm | - | - | - |
| 1777663248 | 15.56° C | 47% | 1013.2 hPa | 0 mm | - | - | - |
| 1777662953 | 15.56° C | 50% | 1013.3 hPa | 0 mm | - | - | - |
| 1777662648 | 15.56° C | 49% | 1013.2 hPa | 0 mm | - | - | - |
| 1777661749 | 15° C | 53% | 1013.6 hPa | 0 mm | - | - | - |
| 1777661448 | 15° C | 51% | 1013.7 hPa | 0 mm | - | - | - |
| 1777660251 | 15° C | 51% | 1013.8 hPa | 0 mm | - | - | - |
| 1777659947 | 15° C | 51% | 1013.9 hPa | 0 mm | - | - | - |
| 1777659647 | 14.44° C | 50% | 1014.1 hPa | 0 mm | - | - | - |
| 1777654855 | 12.78° C | 55% | 1014.3 hPa | 0 mm | - | - | - |
| 1777653977 | 12.22° C | 55% | 1014.4 hPa | 0 mm | - | - | - |
| 1777652748 | 12.22° C | 54% | 1014.7 hPa | 0 mm | - | - | - |
| 1777652155 | 11.67° C | 56% | 1014.9 hPa | 0 mm | - | - | - |
| 1777648550 | 11.11° C | 56% | 1015.6 hPa | 0 mm | - | - | - |
| 1777647651 | 10.56° C | 58% | 1015.7 hPa | 0 mm | - | - | - |
| 1777646752 | 10.56° C | 59% | 1015.6 hPa | 0 mm | - | - | - |
| 1777645886 | 10° C | 60% | 1015.5 hPa | 0 mm | - | - | - |
| 1777645549 | 10° C | 61% | 1015.5 hPa | 0 mm | - | - | - |
* Rain latest hour (hover to see other rain measurements)
** Current wind speed in m/s (hover to see current wind gust speed)